Rbgn^[z[y[W
メイン
   新天体発見情報
     Comet C/2019 K8 (ATLAS)
投稿するにはまず登録を

スレッド表示 | 新しいものから 前のトピック | 次のトピック | 下へ
投稿者 スレッド
佐藤裕久
投稿日時: 2019-7-16 1:16
モデレータ
登録日: 2005-6-12
居住地: 日本
投稿: 2005
オンライン
Comet C/2019 K8 (ATLAS)

A. FitzsimmonsとD. Young (天体物理学研究センター, Queen's大学, Belfast)の通報によると、5月
27.6日UT、ハワイ Mauna Loaにある小惑星地球衝突最終警報システム Asteroid Terrestrial-impact 
Last Alert System (ATLAS)調査プログラムのコースに0.5-m 反射望遠鏡で得たCCD画像から彗星を
発見した。わずかに広がっているように見え、そしてMoffatプロファイルの適合は、コマの半値全幅
(FWHM)が6".3であるのに対し、近傍の恒星は4".2であることを示している。
小惑星センターのPCCP webpageに公表後、T. ChenとP. Sun (0.3-m 反射望遠鏡, Ngari, チベット,
中国; 5月27.9日UT、BISTプログラム (測定者:D. W. E. Green)のコースに、33枚の積分合計したフィ
ルターなしの40秒露出で、良く集光したコマと明らかにp.a. 約240°に向かって約5"かすかなに伸びて
いる。10"の円形範囲で測定した全光度は19.3等であった)や佐藤英貴氏(東京都文京区, iTelescope 
天文台, 0.43-m f/6.8 アストログラフ, Mayhill近郊, ニューメキシコ州, 遠隔操作; 5月29.3 日UT、
60秒露出10枚のスタックで、強く集光した10"のコマがあり、p.a.210°に向かって10"の尾の気配があ
る。5".7の円形範囲で測定した光度は18.4等であった)らCCD位置観測者によって彗星状と観測された。

発見位置は次のとおり、

     2019 UT             R.A. (2000) Decl.       Mag.
     May  27.56612   19 41 51.61   +63 02 46.2   17.9
          27.56901   19 41 51.53   +63 02 53.3   18.8
          27.57410   19 41 50.86   +63 03 01.2   18.8
          27.59282   19 41 48.96   +63 03 30.9   18.3

楕円軌道要素と位置推算表は次のとおり、

Orbital elements:
    C/2019 K8 (ATLAS)
Epoch 2019 July 16.0 TT = JDT 2458680.5
T 2019 July 21.18358 TT                                 MPCLINUX
q   3.1950300            (2000.0)            P               Q
z  +0.0007215      Peri.   85.34351     -0.02312574     -0.36216096
 +/-0.0001082      Node   291.04421     -0.48380657     +0.81971872
e   0.9976947      Incl.   93.22163     +0.87486937     +0.44373489
From 397 observations 2019 May 27-June 30, mean residual 0".5.

    C/2019 K8 (ATLAS)
Epoch 2019 Apr. 27.0 TT = JDT 2458600.5
T 2019 July 21.16749 TT                                 MPCLINUX
q   3.1950532            (2000.0)            P               Q
z  +0.0007324      Peri.   85.33943     -0.02309935     -0.36216089
 +/-0.0001082      Node   291.04411     -0.48386452     +0.81968495
e   0.9976600      Incl.   93.22158     +0.87483801     +0.44379734
From 397 observations 2019 May 27-June 30, mean residual 0".5.

Ephemeris:
Date    TT    R. A. (2000) Decl.     Delta      r    Elong.  Phase   m1
2019 06 01    19 32 58.0 +65 05 46   3.1318  3.2312    86.4    18.3  19.1
...
2019 06 16    18 45 09.3 +71 01 20   3.1402  3.2129    84.9    18.4  19.1
...
2019 06 24    18 06 22.0 +73 13 43   3.1603  3.2057    83.3    18.4  19.1
...
2019 06 30    17 31 52.3 +74 17 52   3.1811  3.2015    82.0    18.3  19.1
2019 07 01    17 25 49.1 +74 25 22   3.1850  3.2009    81.7    18.3  19.1
2019 07 02    17 19 42.8 +74 31 56   3.1890  3.2004    81.5    18.3  19.1
...
2019 07 08    16 42 47.1 +74 52 06   3.2148  3.1975    79.9    18.2  19.1
...
2019 07 16    15 56 40.7 +74 32 18   3.2535  3.1954    77.7    18.1  19.1
...
2019 07 31    14 53 13.9 +72 18 28   3.3321  3.1964    73.5    17.7  19.2

     This object was reported as cometary by A. Fitzsimmons (T05) in ATLAS 
discovery images obtained on 2019 May 27 UT:  "Further inspection supports 
this, with a Moffat profile fit giving a fwhm of 6.3 arcsec as opposed to 
nearby field stars at 4.2 arcsec" Other reports of cometary features are 
summarized below:

OC   Date     Reporter           Coma    Tail
N55  May  27  D. W. E. Green             ~5" in P.A. ~240     (33 x 40s)
N55  May  28  D. W. E. Green             ~4" in P.A. 73, 267  (33 x 40s)
H06  May  29  H. Sato             10"    10" in P.A. 210      (10 x 60s) 
104  May  30  P. Bacci            22"        in P.A. 200      (50 x 30s)
595  May  31  L. Bittesini         6"    30" in P.A. 205      (15 x 60s)
203  May  31  G. Galli             4"    10" in P.A. 215
204  June  1  L. Buzzi            10"    50" in P.A. 190      (30 x 60s)
C10  June  1  J.-F. Soulier      ~10"   ~14" in P.A. 185      (30 x 60s)
N55  June  1  D. W. E. Green      ~4"                         (40 x 40s)
N55  June  2  D. W. E. Green      ~3"    ~8" in P.A. ~191     (30 x 40s)
157  June  2  R. Haver             4"                         (24 x 90s)
246  June  3  M. Tichy            ~5"
G40  June  4  B. Lutkenhoner      ~5"   ~18" in P.A. ~200
N55  June  4  D. W. E. Green      ~4"        in P.A. ~114     (30 x 40s)
Q11  May  29  H. Sato             ~7"    ~9" in P.A. ~216     (15 x 60s)
Q11  June  5  H. Sato             ~7"    ~9" in P.A. ~217     (15 x 60s)
N55  June  6  D. W. E. Green      ~8"        in P.A. 87,267   (28 x 40s)
N55  June  7  D. W. E. Green      ~3"    ~6" in P.A. ~186     (30 x 40s)
N55  June  8  D. W. E. Green      ~4"        in P.A. 236-267  (20 x 40s)
K88  June  9  K. Sarneczky              ~20" in P.A. 180      (3 x 120s)
N55  June  9  D. W. E. Green            ~10" in P.A. ~200     (18 x 40s)
G40  June 12  G. Gasparovic             ~12" in P.A. 175      (25 x 50s)
F51  June 15  R. Wainscoat               ~5"  
F51  June 21  Y. Ramanjooloo      ~3" ~5"-7" in P.A. 270,330  
B96  June 21  E. Bryssinck        11"                         (9 x 120s)
695  June 24  A. F. Tubbiolo            ~25" in P.A. ~175
695  June 25  A. F. Tubbiolo                 in P.A. ~170   
658  June 25  D. D. Balam          6"    94" in P.A. 163
L04  June 26  L. Hudin                       in P.A. 175
I52  June 27  G. J. Leonard     ~5"-7"       in P.A. 160-180  (4 x 10s)

(CBET 4646、MPEC 2019-N13)

スレッド表示 | 新しいものから 前のトピック | 次のトピック | トップ

投稿するにはまず登録を
 
© 1999 Tsutomu Seki.